Home   Weather   Tehran   Past weeks

Flag for Iran Past Weather in Tehran, Iran — Yesterday and Last 2 Weeks

Now
64 °F

Passing clouds.


Feels Like: 64 °F
Forecast: 59 / 77 °F
Wind: 12 mph from Northeast

Location: Tehran-Mehrabad

Current Time: Apr 30, 2017 at 12:02:05 am

Latest Report: Apr 29, 2017 at 11:30 pm


Visibility: N/A

Pressure: 30.15 "Hg (26.25 "Hg at 1179m altitude)

Humidity: 40%

Dew Point: 39 °F

Location of TehranLocation

Past Weather in Tehran — Graph

°F

Tehran Temperature Yesterday

Maximum temperature yesterday: 73 °F (at 3:30 pm)
Minimum temperature yesterday: 57 °F (at 9:00 am)
Average temperature yesterday: 64 °F

High & Low Weather Summary for the Past Weeks

 TemperatureHumidityPressure
High84 °F (Apr 23, 3:00 pm)82% (Apr 19, 8:00 am)30.30 "Hg (Apr 19, 8:00 am)
Low48 °F (Apr 26, 4:00 am)7% (Apr 18, 1:30 pm)29.89 "Hg (Apr 19, 5:30 am)
Average68 °F33%30.06 "Hg
* Reported Apr 14 10:30 pm — Apr 29 10:30 pm, Tehran, Weather by CustomWeather, © 2017

Note: Actual official high and low records may vary slightly from our data, if they occured in-between our weather recording intervals... More about our weather records

Advertising

Tehran Weather History for the Previous 24 Hours

Scroll right to see more
 ConditionsComfort  
Time TempWeatherWind HumidityBarometerVisibility
10:30 pm
Sat, Apr 29
64 °FPassing clouds.14 mph43%30.18 "HgN/A
10:00 pm63 °FPassing clouds.14 mph49%30.18 "HgN/A
9:30 pm63 °FPartly cloudy.14 mph52%30.18 "HgN/A
9:00 pm66 °FSprinkles. Mostly cloudy.18 mph43%30.18 "HgN/A
8:30 pm68 °FSprinkles. Mostly cloudy.23 mph33%30.18 "HgN/A
8:00 pm68 °FMore clouds than sun.5 mph33%30.18 "HgN/A
7:30 pm68 °FPartly sunny.No wind30%30.15 "HgN/A
7:00 pm70 °FPartly sunny.28 mph40%30.09 "HgN/A
6:30 pm72 °FPartly sunny.12 mph36%30.15 "HgN/A
6:00 pm72 °FPartly sunny.14 mph36%30.15 "HgN/A
5:00 pm73 °FScattered clouds.7 mph36%30.15 "HgN/A
4:30 pm73 °FScattered clouds.7 mph29%30.12 "HgN/A
4:00 pm73 °FScattered clouds.7 mph29%30.12 "HgN/A
3:30 pm73 °FScattered clouds.9 mph29%30.12 "HgN/A
3:00 pm72 °FScattered clouds.5 mph31%30.15 "HgN/A
2:30 pm72 °FPartly sunny.5 mph41%30.15 "HgN/A
2:00 pm70 °FScattered clouds.5 mph46%30.18 "HgN/A
1:30 pm68 °FPartly sunny.No wind46%30.18 "HgN/A
1:00 pm66 °FPartly sunny.5 mph49%30.15 "HgN/A
12:00 pm63 °FPartly sunny.7 mph64%30.21 "HgN/A
11:30 am61 °FPartly sunny.7 mph68%30.21 "HgN/A
11:00 am59 °FPartly sunny.5 mph68%30.24 "HgN/A
10:30 am57 °FLight rain. Partly sunny.5 mph77%30.21 "HgN/A
10:00 am57 °FLight rain. Partly sunny.5 mph77%30.27 "HgN/A
9:30 am57 °FLight rain. Partly sunny.7 mph77%30.24 "HgN/A
9:00 am57 °FSprinkles. Overcast.5 mph72%30.27 "Hg4 mi
8:30 am59 °FSprinkles. Overcast.5 mph63%30.27 "Hg4 mi
8:00 am59 °FSprinkles. Overcast.5 mph63%30.24 "Hg4 mi
7:32 am61 °FThunderstorms. More clouds than sun.7 mph63%30.21 "HgN/A
7:30 am59 °FSprinkles. More clouds than sun.7 mph68%30.21 "HgN/A
7:00 am59 °FSprinkles. More clouds than sun.7 mph72%30.21 "Hg4 mi
6:33 am59 °FSprinkles. Mostly cloudy.5 mph68%30.21 "Hg3 mi
6:30 am59 °FSprinkles. Partly cloudy.No wind68%30.21 "Hg5 mi
6:00 am61 °FPartly cloudy.No wind59%30.21 "HgN/A
5:30 am61 °FSprinkles. Partly cloudy.9 mph55%30.18 "HgN/A
5:00 am63 °FPassing clouds.5 mph52%30.21 "HgN/A
4:30 am63 °FPassing clouds.5 mph49%30.18 "HgN/A
4:00 am63 °FPartly cloudy.7 mph52%30.18 "HgN/A
3:30 am63 °FPartly cloudy.7 mph52%30.18 "HgN/A
3:00 am63 °FPartly cloudy.7 mph52%30.18 "HgN/A
2:30 am61 °FPartly cloudy.9 mph55%30.18 "HgN/A
2:00 am61 °FPartly cloudy.12 mph59%30.21 "HgN/A
1:30 am59 °FRain showers. Partly cloudy.9 mph68%30.24 "Hg4 mi
1:00 am63 °FRain showers. Partly cloudy.16 mph59%30.24 "HgN/A
12:30 am66 °FSprinkles. Partly cloudy.5 mph43%30.21 "HgN/A
12:00 am66 °FSprinkles. Partly cloudy.7 mph43%30.18 "HgN/A
Weather by CustomWeather, © 2017

See weather overviewHow to use our weather pages